Hourly Data Report for October 05, 2017

All times are specified in Local Standard Time (LST). Add 1 hour to adjust for Daylight Saving Time where and when it is observed.

PAULATUK
NORTHWEST TERRITORIES

69°21'28.004" N
124°04'57.005" W
6.30 m
2203058
71984
ZPK

Download Data

Hourly Data (October 2017)
Hourly Data Report for October 5, 2017
Temp Definition
°C
Dew Point Temp Definition
°C
Rel Hum Definition
%
Wind Dir Definition
10's deg

Wind Spd Definition
km/h
Visibility Definition
km
Stn Press Definition
kPa
Hmdx Definition


Wind Chill Definition


Weather Definition


TIME
00:00 -3.0 -6.7 76 8 20   101.49   -9 LegendNANA
01:00 -2.0 -6.4 72 9 15   101.40   -7 LegendNANA
02:00 -1.7 -7.2 66 8 22   101.30   -8 LegendNANA
03:00 -0.6 -8.6 54 12 13   101.17   -5 LegendNANA
04:00 1.0 -8.4 49 11 19   101.02     LegendNANA
05:00 0.8 -7.7 53 11 25   100.87     LegendNANA
06:00 1.7 -8.4 47 9 20   100.75     LegendNANA
07:00 1.0 -6.6 57 12 15   100.63     LegendNANA
08:00 1.0 -6.5 57 10 28   100.43     LegendNANA
09:00 2.0 -6.6 53 11 27   100.31     LegendNANA
10:00 2.1 -5.9 55 11 28   100.18     LegendNANA
11:00 3.1 -7.5 46 15 29   100.16     LegendNANA
12:00 2.5 -4.6 60 15 35   100.03     LegendNANA
13:00 2.8 -1.8 72 18 48   99.92     LegendNANA
14:00 2.4 -0.6 81 17 35   99.97     LegendNANA
15:00 2.2 -0.4 83 17 26   99.98     LegendNANA
16:00 1.7 -1.2 82 14 27   99.92     LegendNANA
17:00 1.4 -1.1 83 14 26   99.89     LegendNANA
18:00 1.6 -1.5 80 11 22   99.87     LegendNANA
19:00 1.8 -1.3 80 14 23   99.82     LegendNANA
20:00 2.0 -1.2 79 14 24   99.77     LegendNANA
21:00 2.0 -1.4 78 14 20   99.76     LegendNANA
22:00 1.9 -1.6 78 14 22   99.72     LegendNANA
23:00 2.0 -1.9 76 14 23   99.70     LegendNANA

Notes on Data Quality.

Legend

  • E = Estimated
  • M = Missing
  • NA = Not Available
  • ‡ = Partner data that is not subject to review by the National Climate Archives
Date modified: